Location: DARK SKY Beskydy - Park tmavé oblohy, www.darkskybeskydy.cz
(49.4926°N, 18.5016°E)
Time: 15:18:30
(UTC+01:00)

Vanguard 1 - Pass Details

Date: 13 November 2025
Orbit: 650 x 3821 km, 34.2° (Epoch: 07 December)

Event Time Altitude Azimuth Distance (km) Brightness Sun altitude
Rises 17:30:44 0° 236° (SW) 7,202 15.8 -13.8°
Reaches altitude 10° 17:35:26 10° 231° (SW) 6,462 15.2 -14.5°
Maximum altitude 17:56:10 48° 166° (SSE) 4,484 13.3 -17.8°
Enters shadow 18:11:22 20° 107° (ESE) 5,484 13.3 -20.3°
